[[{"header":{"parameterUnit":"m.s-1","parameterCategory":1,"la1":30.2991,"la2":30.254,"lo1":-89.0895,"lo2":-89.0444,"dy":0.0017,"dx":0.0017,"nx":28,"ny":28,"refTime":"2025-07-16T21:00:00:Z","depth":0,"parameterNumber":2,"parameterNumberName":"U-component_of_WINDS"},"data":[0,0,0,0,0,0,0,0,0,0,0,0,0,0,0,0,0,0,0,0,0,0,0,0,0,0,0,0,0,0,0,0,0,0,0,0,0,0,0,0,0,0,0,0,0,0,0,0,0,0,0,0,0,0,0,0,0,0,-0.7214,-0.7214,0,-0.719,-0.719,-0.719,-0.7192,-0.7193,-0.7193,-0.7194,-0.7167,-0.7166,-0.7165,0,0,0,0,0,0,0,0,0,0,0,0,0,-0.7261,-0.726,-0.7214,-0.7214,-0.7214,-0.7191,-0.719,-0.719,-0.7192,-0.7193,-0.7193,-0.7194,-0.7168,-0.7166,-0.7165,0,0,0,0,0,0,0,0,0,0,0,0,0,-0.7239,-0.726,-0.7214,-0.7212,-0.7212,-0.7191,-0.719,-0.719,-0.7192,-0.7193,-0.7193,-0.7194,-0.7168,-0.7166,-0.7165,-0.7144,0,0,-0.716,-0.7159,0,0,0,0,0,0,0,0,-0.7241,-0.7238,-0.7213,-0.7212,-0.7212,-0.7195,-0.7197,-0.7174,-0.7192,-0.72,-0.7194,-0.7194,-0.7176,-0.7174,-0.7168,-0.7142,-0.7141,-0.716,-0.7159,-0.7158,-0.7158,0,0,0,0,0,0,0,-0.7242,-0.7239,-0.7205,-0.7213,-0.7212,-0.7212,-0.721,-0.7193,-0.7185,-0.7199,-0.7199,-0.7196,-0.7176,-0.7169,-0.7167,-0.7141,-0.716,-0.7159,-0.7158,-0.7157,-0.7098,-0.7097,0,0,0,0,0,0,-0.7244,-0.724,-0.7206,-0.7204,-0.7228,-0.7211,-0.7208,-0.72,-0.7185,-0.7183,-0.7196,-0.7197,-0.7172,-0.7169,-0.7166,-0.7141,-0.7158,-0.7157,-0.7156,-0.7098,-0.7098,-0.7097,0,0,0,0,0,0,-0.7245,-0.7241,-0.7207,-0.7222,-0.7218,-0.721,-0.72,-0.7199,-0.7193,-0.7183,-0.7181,-0.7191,-0.7172,-0.7169,-0.715,-0.714,-0.7156,-0.7155,-0.7099,-0.7098,-0.7097,-0.709,0,0,0,0,0,0,-0.7247,-0.7242,-0.7234,-0.7222,-0.7217,-0.719,-0.72,-0.7198,-0.719,-0.7191,-0.7178,-0.7176,-0.7172,-0.7152,-0.7148,-0.7138,-0.7153,-0.71,-0.7099,-0.7098,-0.7091,-0.7089,-0.7087,0,0,0,0,0,-0.7248,-0.7232,-0.7233,-0.7229,-0.7207,-0.719,-0.7187,-0.7184,-0.719,-0.7181,-0.7175,-0.7176,-0.7142,-0.715,-0.7146,-0.7135,-0.71,-0.7099,-0.7098,-0.7092,-0.7089,-0.7087,0,0,0,0,0,0,-0.7241,-0.723,-0.7231,-0.7211,-0.7201,-0.719,-0.718,-0.7181,-0.7169,-0.717,-0.7166,-0.7163,-0.7144,-0.7138,-0.7147,-0.7114,-0.7122,-0.712,-0.7119,-0.7116,-0.7114,-0.7116,-0.7152,0,0,0,0,0,-0.7237,-0.7225,-0.7216,-0.7198,-0.7194,-0.7188,-0.718,-0.7179,-0.7168,-0.7164,-0.7156,-0.7146,-0.7133,-0.7125,-0.7112,-0.709,-0.7088,-0.7081,-0.7079,-0.7078,-0.7075,-0.7064,-0.7061,-0.7092,-0.7092,-0.7092,0,0,-0.7229,-0.7221,-0.7214,-0.7197,-0.7189,-0.7176,-0.7184,-0.717,-0.716,-0.7162,-0.7144,-0.7138,-0.7126,-0.7106,-0.7097,-0.71,-0.7066,-0.7076,-0.7075,-0.7073,-0.7063,-0.706,-0.7057,-0.7091,-0.7092,-0.7092,0,0,-0.7207,-0.72,-0.7185,-0.7178,-0.7167,-0.7163,-0.716,-0.7149,-0.7146,-0.7128,-0.7129,-0.7117,-0.7095,-0.7087,-0.708,-0.7057,-0.7058,-0.7053,-0.7042,-0.7031,-0.7029,-0.7027,-0.7019,-0.7016,-0.7051,-0.7051,-0.7051,0,-0.7197,-0.7178,-0.7177,-0.7163,-0.7156,-0.7158,-0.7143,-0.7136,-0.7121,-0.7116,-0.712,-0.7093,-0.7085,-0.7064,-0.7058,-0.7052,-0.7048,-0.7054,-0.7029,-0.7027,-0.7025,-0.7018,-0.7015,-0.705,-0.705,-0.705,-0.705,0,-0.7168,-0.7155,-0.7144,-0.7131,-0.7123,-0.7108,-0.7104,-0.7096,-0.7096,-0.7091,-0.7074,-0.7065,-0.7051,-0.7046,-0.7045,-0.7024,-0.7027,-0.703,-0.7038,-0.7022,-0.7014,-0.7012,-0.7049,-0.7049,-0.705,-0.705,0,0,-0.7139,-0.7127,-0.7123,-0.7117,-0.7106,-0.7096,-0.7082,-0.7069,-0.7063,-0.7053,-0.7041,-0.7023,-0.7027,-0.7019,-0.7017,-0.7008,-0.6991,-0.7012,-0.7012,-0.7009,-0.6968,-0.6965,-0.6962,-0.6992,-0.6991,-0.6991,-0.6969,0,-0.7116,-0.7091,-0.709,-0.7068,-0.7057,-0.7059,-0.7047,-0.7039,-0.7036,-0.7025,-0.7021,-0.7008,-0.7014,-0.7009,-0.7,-0.6995,-0.6982,-0.6996,-0.698,-0.698,-0.6983,-0.6958,-0.6955,-0.6935,-0.6966,-0.6966,-0.6965,0,-0.7085,-0.7076,-0.7053,-0.7045,-0.704,-0.7029,-0.7018,-0.7008,-0.6999,-0.6997,-0.6989,-0.6989,-0.6975,-0.6984,-0.6965,-0.6974,-0.6968,-0.6964,-0.6964,-0.6961,-0.6971,-0.6955,-0.6928,-0.6925,-0.6961,-0.6961,-0.6962,0,-0.7066,-0.7048,-0.7032,-0.7028,-0.7018,-0.701,-0.7006,-0.6998,-0.6991,-0.6981,-0.6977,-0.6965,-0.6959,-0.695,-0.6947,-0.6954,-0.6928,-0.6936,-0.6926,-0.6926,-0.692,-0.692,-0.6891,-0.6916,-0.6916,-0.6916,-0.6916,0,-0.704,-0.7026,-0.7024,-0.7014,-0.6999,-0.6998,-0.6983,-0.6978,-0.6972,-0.6961,-0.6963,-0.6953,-0.695,-0.6939,-0.6937,-0.6922,-0.6919,-0.6917,-0.6916,-0.6916,-0.6917,-0.6912,-0.6913,-0.6915,-0.6916,-0.6916,-0.6916,0,-0.7017,-0.7015,-0.6998,-0.6991,-0.6989,-0.6977,-0.6971,-0.6962,-0.6959,-0.6946,-0.6943,-0.6938,-0.6926,-0.6923,-0.6908,-0.6907,-0.6888,-0.6889,-0.6892,-0.6891,-0.6881,-0.6882,-0.6848,-0.6843,-0.6871,-0.6871,-0.6871,0,-0.7,-0.6989,-0.6982,-0.6975,-0.6971,-0.696,-0.6954,-0.6953,-0.6946,-0.6936,-0.6928,-0.6916,-0.6907,-0.6888,-0.6883,-0.6872,-0.6872,-0.6861,-0.6871,-0.6872,-0.6872,-0.6873,-0.6872,-0.6859,-0.6859,-0.6859,-0.6858,0,-0.6971,-0.6971,-0.6961,-0.6952,-0.6944,-0.6937,-0.6929,-0.6924,-0.6922,-0.6914,-0.6902,-0.6895,-0.6881,-0.687,-0.6859,-0.6854,-0.6856,-0.6856,-0.6853,-0.6852,-0.6854,-0.6854,-0.6886,-0.6856,-0.6856,-0.6857,-0.6857,-0.6857,-0.695,-0.6941,-0.6935,-0.6925,-0.692,-0.6913,-0.6904,-0.6901,-0.6892,-0.6881,-0.6881,-0.6868,-0.6861,-0.6847,-0.6842,-0.6832,-0.6835,-0.6831,-0.683,-0.6828,-0.6828,-0.6856,-0.683,-0.683,-0.683,-0.683,-0.683,0,-0.6921,-0.6918,-0.6908,-0.6899,-0.6891,-0.6895,-0.6887,-0.688,-0.6869,-0.6863,-0.6854,-0.6841,-0.6831,-0.6826,-0.6815,-0.6809,-0.6809,-0.6806,-0.6806,-0.6805,-0.6825,-0.6829,-0.6806,-0.6806,-0.6806,-0.6806,-0.6806,-0.6806,-0.6905,-0.689,-0.689,-0.6873,-0.687,-0.6858,-0.6854,-0.6848,-0.6843,-0.6829,-0.682,-0.6818,-0.6812,-0.6801,-0.6792,-0.6791,-0.6787,-0.6783,-0.6782,-0.6801,-0.6804,-0.6806,-0.6809,-0.6782,-0.6782,-0.6763,-0.6763,-0.6763]},{"header":{"parameterUnit":"m.s-1","parameterCategory":1,"la1":30.2991,"la2":30.254,"lo1":-89.0895,"lo2":-89.0444,"dy":0.0017,"dx":0.0017,"nx":28,"ny":28,"refTime":"2025-07-16T21:00:00:Z","depth":0,"parameterNumber":3,"parameterNumberName":"V-component_of_WINDS"},"data":[0,0,0,0,0,0,0,0,0,0,0,0,0,0,0,0,0,0,0,0,0,0,0,0,0,0,0,0,0,0,0,0,0,0,0,0,0,0,0,0,0,0,0,0,0,0,0,0,0,0,0,0,0,0,0,0,0,0,0.6764,0.6766,0,0.6978,0.6981,0.6983,0.6957,0.6953,0.695,0.6946,0.7165,0.7173,0.7182,0,0,0,0,0,0,0,0,0,0,0,0,0,0.6328,0.6336,0.6764,0.6767,0.6769,0.6978,0.6981,0.6984,0.6957,0.6953,0.6949,0.6945,0.7162,0.7172,0.7183,0,0,0,0,0,0,0,0,0,0,0,0,0,0.6527,0.6339,0.6763,0.6781,0.6785,0.6978,0.6981,0.6985,0.6958,0.6953,0.6948,0.6943,0.7158,0.7171,0.7185,0.7373,0,0,0.7226,0.7232,0,0,0,0,0,0,0,0,0.6516,0.6543,0.6776,0.678,0.6785,0.6936,0.6907,0.7115,0.696,0.6892,0.6946,0.694,0.7093,0.7111,0.7163,0.7383,0.7393,0.7227,0.7236,0.7242,0.7245,0,0,0,0,0,0,0,0.6502,0.6534,0.6849,0.6779,0.6785,0.6777,0.68,0.6946,0.7019,0.6898,0.6896,0.6922,0.7094,0.715,0.7168,0.7396,0.7227,0.7239,0.7248,0.7253,0.7777,0.7782,0,0,0,0,0,0,0.6484,0.6523,0.6842,0.6855,0.6635,0.6789,0.6815,0.6892,0.7017,0.7031,0.6926,0.692,0.7129,0.7152,0.7175,0.7401,0.7241,0.7254,0.7262,0.7771,0.7778,0.7784,0,0,0,0,0,0,0.6475,0.6513,0.6833,0.6689,0.6729,0.6802,0.689,0.6899,0.6955,0.7039,0.7052,0.697,0.7126,0.7156,0.7323,0.7408,0.726,0.7273,0.7764,0.7773,0.7781,0.7855,0,0,0,0,0,0,0.6463,0.651,0.6583,0.6691,0.6737,0.6979,0.6895,0.6907,0.6979,0.6973,0.7084,0.7097,0.7124,0.7303,0.7337,0.7424,0.7283,0.7757,0.7768,0.7778,0.7845,0.7865,0.7882,0,0,0,0,0,0.6447,0.6596,0.6587,0.6626,0.683,0.6984,0.701,0.7039,0.6986,0.7059,0.7112,0.7093,0.7394,0.732,0.7358,0.7451,0.7751,0.7765,0.7777,0.7837,0.7861,0.7881,0,0,0,0,0,0,0.6497,0.661,0.6602,0.679,0.6877,0.6979,0.7073,0.7064,0.7168,0.7158,0.7189,0.7214,0.7382,0.7433,0.735,0.7637,0.7565,0.7586,0.7597,0.7621,0.7639,0.7622,0.7294,0,0,0,0,0,0.653,0.6646,0.6739,0.6896,0.694,0.6999,0.7067,0.7082,0.7173,0.721,0.7276,0.7365,0.7478,0.7553,0.7663,0.7853,0.7874,0.7935,0.7953,0.7968,0.7985,0.8085,0.8112,0.7827,0.7827,0.7826,0,0,0.6599,0.6675,0.6747,0.6908,0.6977,0.7095,0.703,0.7159,0.7246,0.7229,0.739,0.7441,0.7542,0.772,0.7802,0.7768,0.8069,0.7984,0.7995,0.8005,0.8101,0.8128,0.8152,0.7836,0.7834,0.7833,0,0,0.6785,0.6856,0.6992,0.7063,0.7168,0.7206,0.7239,0.7342,0.7375,0.7537,0.7525,0.7629,0.7826,0.7897,0.7959,0.8169,0.8154,0.8204,0.8299,0.8396,0.8419,0.8439,0.851,0.8536,0.8221,0.8221,0.8221,0,0.6857,0.7036,0.7064,0.7193,0.7262,0.7253,0.739,0.7457,0.7593,0.764,0.7601,0.7845,0.7912,0.8105,0.8156,0.8208,0.8244,0.819,0.8413,0.8434,0.8453,0.8521,0.8548,0.8226,0.8226,0.8225,0.8225,0,0.7118,0.7241,0.7339,0.7469,0.755,0.7683,0.773,0.7808,0.7815,0.7856,0.8019,0.8099,0.8223,0.8271,0.8279,0.8464,0.8439,0.8407,0.8334,0.8485,0.8549,0.8576,0.8234,0.8232,0.823,0.8229,0,0,0.7341,0.7484,0.7519,0.7576,0.7691,0.7787,0.7918,0.8039,0.8104,0.8198,0.8306,0.8471,0.8441,0.8511,0.8527,0.8613,0.8769,0.857,0.8572,0.8601,0.8973,0.8995,0.9025,0.8761,0.8766,0.877,0.8963,0,0.7535,0.7767,0.7795,0.8001,0.8113,0.8104,0.8218,0.8299,0.8341,0.8441,0.8487,0.8602,0.8555,0.8597,0.8681,0.8732,0.8844,0.8719,0.8859,0.8864,0.8831,0.9059,0.9084,0.9262,0.8989,0.8994,0.8997,0,0.7794,0.7893,0.811,0.8205,0.8254,0.8356,0.8467,0.8564,0.8655,0.8679,0.8756,0.8761,0.8893,0.8817,0.8998,0.8913,0.8972,0.9005,0.9012,0.9025,0.8938,0.9074,0.9321,0.9346,0.9037,0.9034,0.9031,0,0.793,0.8119,0.8272,0.8322,0.8439,0.851,0.8561,0.8648,0.8717,0.8815,0.886,0.8971,0.9032,0.9117,0.915,0.9092,0.9329,0.9256,0.935,0.9349,0.9398,0.9394,0.9654,0.9441,0.9441,0.944,0.944,0,0.8143,0.8275,0.8334,0.8428,0.8575,0.8605,0.8749,0.8797,0.8874,0.8975,0.8975,0.907,0.9109,0.921,0.9237,0.9381,0.9409,0.943,0.9435,0.9429,0.9425,0.9466,0.9453,0.9447,0.9446,0.9444,0.9443,0,0.832,0.8366,0.8531,0.8627,0.8654,0.8758,0.8839,0.8929,0.8969,0.9097,0.9128,0.9191,0.9309,0.9351,0.9495,0.9512,0.9678,0.9675,0.9647,0.9648,0.9738,0.9727,1.003,1.007,0.9834,0.9836,0.9838,0,0.8451,0.8552,0.8659,0.8727,0.8781,0.8891,0.8961,0.8994,0.9068,0.9177,0.9253,0.937,0.9466,0.9654,0.9711,0.982,0.9817,0.9916,0.9833,0.9822,0.9814,0.9807,0.9815,0.993,0.9933,0.9935,0.9936,0,0.8678,0.8695,0.8798,0.8908,0.8992,0.908,0.9165,0.9221,0.9266,0.9348,0.9469,0.9542,0.9688,0.9803,0.9914,0.9966,0.9958,0.9962,0.9988,0.9982,0.996,0.9969,0.9686,0.9954,0.9952,0.9951,0.995,0.9949,0.8835,0.8922,0.901,0.9123,0.919,0.9269,0.9357,0.9407,0.9509,0.963,0.9643,0.9771,0.9857,1.0005,1.0061,1.0161,1.0133,1.0173,1.0183,1.0191,1.0196,0.9946,1.0182,1.0181,1.0181,1.018,1.018,0,0.9058,0.9114,0.9218,0.9336,0.9424,0.941,0.9503,0.9577,0.969,0.9771,0.9864,1.0001,1.0112,1.0177,1.0287,1.0354,1.0353,1.0382,1.0376,1.0387,1.0216,1.018,1.0381,1.0381,1.0381,1.0381,1.0381,1.038,0.9185,0.9332,0.9359,0.9537,0.9592,0.9718,0.9772,0.9843,0.9907,1.006,1.0152,1.0194,1.0267,1.0382,1.0483,1.0499,1.0538,1.0569,1.0582,1.042,1.0399,1.038,1.0346,1.0578,1.0578,1.0744,1.0745,1.0746]}]]